Flag for Canada Weather past 2 weeks in Thunder Bay, Ontario, Canada

Now
72 °F

Scattered clouds.


Feels Like: 75 °F
Forecast: N/A
Wind: 7 mph from Southeast

Location: Thunder Bay

Current Time: Sep 4, 2015 at 7:29:05 PM

Latest Report: Sep 4, 2015 at 7:00 PM


Visibility: 20 mi

Pressure: 30.06 "Hg

Humidity: 69%

Dew point: 61 °F

Location of Thunder BayLocation

Historic Weather in Thunder Bay — Graph

°F

Thunder Bay temperature yesterday

Maximum temperature yesterday: 77 °F (at 3:00 PM)
Minimum temperature yesterday: 48 °F (at 6:00 AM)
Average temperature yesterday: 62 °F

Past Weeks' High & Low Weather Summary

 TemperatureHumidityPressure
High82 °F (Sep 1, 4:00 PM)100% (Aug 21, 2:00 AM)30.16 "Hg (Aug 21, 2:00 AM)
Low43 °F (Aug 21, 6:00 AM)42% (Sep 1, 6:00 PM)29.53 "Hg (Aug 23, 11:00 PM)
Average61 °F81%29.90 "Hg
* Reported Aug 20 6:00 PM — Sep 4 6:00 PM, Thunder Bay, Weather by CustomWeather, © 2015

Note: Actual official high and low records may vary slightly from our data, if they occured in-between our weather recording intervals... More about our weather records

Advertising

Thunder Bay weather history for previous 24 hours

 ConditionsComfort  
Time TempWeatherWind HumidityBarometerVisibility
6:00 PM
Fri, Sep 4
73 °FScattered clouds.6 mph69%30.06 "Hg20 mi
5:00 PM75 °FScattered clouds.9 mph61%30.06 "Hg20 mi
4:00 PM75 °FScattered clouds.13 mph65%30.06 "Hg20 mi
3:00 PM75 °FScattered clouds.14 mph61%30.07 "Hg20 mi
2:00 PM75 °FScattered clouds.10 mph65%30.08 "Hg20 mi
1:00 PM73 °FScattered clouds.9 mph65%30.09 "Hg20 mi
12:00 PM73 °FPassing clouds.9 mph65%30.08 "Hg20 mi
11:00 AM70 °FScattered clouds.7 mph69%30.07 "Hg20 mi
10:00 AM63 °FPassing clouds.No wind83%30.07 "Hg20 mi
9:00 AM57 °FPassing clouds.2 mph94%30.08 "Hg20 mi
8:00 AM50 °FPassing clouds.5 mph100%30.08 "Hg20 mi
7:00 AM50 °FFog.3 mph100%30.06 "Hg15 mi
6:00 AM50 °FClear.No wind100%30.06 "Hg15 mi
5:00 AM52 °FClear.2 mph100%30.06 "Hg15 mi
4:00 AM52 °FClear.No wind100%30.06 "Hg15 mi
3:00 AM54 °FClear.3 mph100%30.05 "Hg15 mi
2:00 AM54 °FClear.2 mph100%30.04 "Hg15 mi
1:00 AM55 °FClear.2 mph94%30.04 "Hg15 mi
12:00 AM59 °FClear.3 mph88%30.03 "Hg15 mi
11:00 PM
Thu, Sep 3
61 °FClear.2 mph88%30.01 "Hg15 mi
10:00 PM63 °FPassing clouds.8 mph83%30.01 "Hg15 mi
9:00 PM64 °FPassing clouds.7 mph83%30.00 "Hg20 mi
8:00 PM70 °FPassing clouds.5 mph69%29.99 "Hg20 mi
7:00 PM73 °FScattered clouds.5 mph61%30.00 "Hg20 mi
Weather by CustomWeather, © 2015

See weather overviewHow to use our weather pages